THY444 EFHK-EDDF

Flight info

Callsign THY444
Flight time N/A
Altitude 38000
Route NUNTO Y369 REKDO DCT KOSKA DCT BIKRU DCT HLZ DCT RIMET/N0466F310 T157 KOKEB/N0416F230 T157 KERAX KERAX5D
Aircraft B77W/H-SDE1E2E3FGHIJ2J3J4J5M1RWXY/LB1D1

Departure

Time 2026-04-26 18:14
Airport Helsinki Vantaa Airport (EFHK)

Arrival

Time N/A
Airport Frankfurt Main Airport (EDDF)
Time Latitude Longitude Altitude Speed Heading
2026-04-26 17:47 60.31370 24.95384 171 ft 0 kts 137°
2026-04-26 17:59 60.31378 24.95369 152 ft 4 kts 137°
2026-04-26 17:59 60.31396 24.95334 148 ft 0 kts 129°
2026-04-26 18:00 60.31357 24.95408 171 ft 0 kts 137°
2026-04-26 18:03 60.31367 24.95389 171 ft 4 kts 137°
2026-04-26 18:03 60.31387 24.95353 171 ft 4 kts 139°
2026-04-26 18:03 60.31408 24.95322 171 ft 4 kts 126°
2026-04-26 18:03 60.31414 24.95280 171 ft 4 kts 81°
2026-04-26 18:04 60.31402 24.95240 171 ft 4 kts 39°
2026-04-26 18:04 60.31390 24.95218 171 ft 1 kts 47°
2026-04-26 18:04 60.31389 24.95216 171 ft 0 kts 47°
2026-04-26 18:09 60.31410 24.95248 171 ft 8 kts 27°
2026-04-26 18:10 60.31458 24.95229 171 ft 15 kts 335°
2026-04-26 18:10 60.31504 24.95073 174 ft 14 kts 255°
2026-04-26 18:10 60.31451 24.94910 172 ft 14 kts 228°
2026-04-26 18:10 60.31378 24.94747 168 ft 17 kts 226°
2026-04-26 18:11 60.31295 24.94566 164 ft 19 kts 227°
2026-04-26 18:11 60.31219 24.94398 164 ft 19 kts 228°
2026-04-26 18:12 60.31129 24.94195 162 ft 19 kts 229°
2026-04-26 18:12 60.31046 24.93986 163 ft 19 kts 250°
2026-04-26 18:12 60.31087 24.93748 163 ft 19 kts 328°
2026-04-26 18:12 60.31200 24.93795 164 ft 8 kts 42°
2026-04-26 18:13 60.31204 24.93803 164 ft 0 kts 46°
2026-04-26 18:13 60.31227 24.93852 163 ft 19 kts 46°
2026-04-26 18:13 60.31342 24.94101 166 ft 61 kts 47°
2026-04-26 18:14 60.32025 24.95607 178 ft 152 kts 48°
2026-04-26 18:14 60.32822 24.97471 370 ft 187 kts 47°
2026-04-26 18:14 60.33609 24.99430 1614 ft 173 kts 39°
2026-04-26 18:14 60.34484 25.01180 2910 ft 180 kts 39°
2026-04-26 18:15 60.35347 25.03013 3708 ft 189 kts 39°
2026-04-26 18:15 60.36320 25.05100 4020 ft 222 kts 40°
2026-04-26 18:15 60.37400 25.07459 4016 ft 231 kts 41°
2026-04-26 18:15 60.38493 25.09878 4027 ft 234 kts 41°
2026-04-26 18:16 60.39689 25.12028 4583 ft 227 kts 22°
2026-04-26 18:16 60.42769 25.12996 6565 ft 230 kts 358°
2026-04-26 18:16 60.44393 25.13025 7551 ft 236 kts 358°
2026-04-26 18:17 60.46060 25.13058 8504 ft 244 kts 360°
2026-04-26 18:17 60.47750 25.12735 9396 ft 248 kts 342°
2026-04-26 18:17 60.49240 25.10878 10269 ft 261 kts 319°
2026-04-26 18:17 60.50328 25.07777 10908 ft 284 kts 300°
2026-04-26 18:18 60.50808 25.03635 11131 ft 322 kts 278°
2026-04-26 18:18 60.50740 24.98863 11465 ft 354 kts 265°
2026-04-26 18:18 60.50020 24.93952 12313 ft 372 kts 249°
2026-04-26 18:18 60.48792 24.89346 13178 ft 381 kts 244°
2026-04-26 18:19 60.47434 24.84596 14171 ft 386 kts 244°
2026-04-26 18:19 60.46089 24.79950 15202 ft 390 kts 243°
2026-04-26 18:19 60.44706 24.75179 16154 ft 395 kts 244°
2026-04-26 18:19 60.43307 24.70339 17090 ft 401 kts 244°
2026-04-26 18:20 60.41890 24.65418 18021 ft 407 kts 244°
2026-04-26 18:20 60.40457 24.60428 18828 ft 412 kts 244°
2026-04-26 18:20 60.39007 24.55373 19649 ft 417 kts 244°
2026-04-26 18:20 60.38039 24.51997 20183 ft 420 kts 245°
2026-04-26 18:21 60.36061 24.45104 21269 ft 426 kts 245°
2026-04-26 18:21 60.34565 24.39899 22049 ft 431 kts 245°
2026-04-26 18:21 60.33046 24.34626 22806 ft 437 kts 245°
2026-04-26 18:21 60.31509 24.29300 23554 ft 442 kts 245°
2026-04-26 18:22 60.29952 24.23919 24118 ft 447 kts 246°
2026-04-26 18:22 60.28375 24.18477 24693 ft 452 kts 246°
2026-04-26 18:22 60.26800 24.13060 25260 ft 456 kts 246°
2026-04-26 18:22 60.25186 24.07530 25793 ft 461 kts 248°
2026-04-26 18:23 60.23551 24.01937 26368 ft 465 kts 248°
2026-04-26 18:23 60.21900 23.96301 26952 ft 469 kts 248°
2026-04-26 18:23 60.20235 23.90632 27490 ft 473 kts 248°
2026-04-26 18:23 60.18548 23.84901 27945 ft 479 kts 248°
2026-04-26 18:24 60.16841 23.79110 27913 ft 482 kts 247°
2026-04-26 18:24 60.15130 23.73343 27914 ft 479 kts 247°
2026-04-26 18:24 60.13427 23.67623 27914 ft 477 kts 247°
2026-04-26 18:24 60.11718 23.61884 28167 ft 481 kts 247°
2026-04-26 18:25 60.09997 23.56103 28683 ft 483 kts 248°
2026-04-26 18:25 60.08267 23.50313 29291 ft 484 kts 248°
2026-04-26 18:25 60.06531 23.44510 29738 ft 488 kts 248°
2026-04-26 18:25 60.04777 23.38668 30190 ft 490 kts 248°
2026-04-26 18:26 60.03019 23.32836 30656 ft 490 kts 247°
2026-04-26 18:26 60.01278 23.27077 31133 ft 490 kts 247°
2026-04-26 18:26 59.99512 23.21249 31600 ft 490 kts 247°
2026-04-26 18:26 59.97745 23.15429 32038 ft 490 kts 246°
2026-04-26 18:27 59.95973 23.09609 32476 ft 491 kts 246°
2026-04-26 18:27 59.94199 23.03793 32926 ft 490 kts 246°
2026-04-26 18:27 59.92427 22.97997 33426 ft 489 kts 246°
2026-04-26 18:27 59.90655 22.92219 33847 ft 488 kts 246°
2026-04-26 18:28 59.88877 22.86426 33948 ft 494 kts 246°
2026-04-26 18:28 59.87077 22.80573 33946 ft 493 kts 246°
2026-04-26 18:28 59.83502 22.69035 33945 ft 487 kts 246°
2026-04-26 18:29 59.79946 22.57595 33958 ft 486 kts 246°
2026-04-26 18:29 59.76379 22.46163 33962 ft 487 kts 246°
2026-04-26 18:30 59.72825 22.34830 33964 ft 488 kts 246°
2026-04-26 18:30 59.69223 22.23406 33976 ft 489 kts 246°
2026-04-26 18:31 59.65574 22.11866 33993 ft 502 kts 245°
2026-04-26 18:31 59.61836 22.00137 33964 ft 499 kts 245°
2026-04-26 18:32 59.58151 21.88667 33976 ft 493 kts 246°
2026-04-26 18:32 59.54468 21.77205 33998 ft 495 kts 245°
2026-04-26 18:33 59.50756 21.65704 34165 ft 498 kts 245°
2026-04-26 18:33 59.48895 21.59964 34462 ft 497 kts 245°
2026-04-26 18:33 59.47032 21.54241 34786 ft 496 kts 245°
2026-04-26 18:34 59.45194 21.48603 35098 ft 496 kts 245°
2026-04-26 18:34 59.43326 21.42890 35394 ft 496 kts 244°
2026-04-26 18:34 59.41459 21.37189 35645 ft 497 kts 244°
2026-04-26 18:34 59.39585 21.31480 35892 ft 497 kts 244°
2026-04-26 18:35 59.35805 21.20001 36007 ft 503 kts 244°
2026-04-26 18:35 59.32005 21.08539 35983 ft 498 kts 244°
2026-04-26 18:36 59.28226 20.97186 36255 ft 498 kts 244°
2026-04-26 18:36 59.26337 20.91524 36549 ft 497 kts 244°
2026-04-26 18:36 59.24443 20.85862 36837 ft 497 kts 243°
2026-04-26 18:37 59.22547 20.80208 37094 ft 497 kts 243°
2026-04-26 18:37 59.20651 20.74569 37331 ft 497 kts 243°
2026-04-26 18:37 59.18641 20.69134 37542 ft 503 kts 237°
2026-04-26 18:37 59.16332 20.63954 37764 ft 508 kts 231°
2026-04-26 18:38 59.13750 20.59199 37980 ft 512 kts 228°
2026-04-26 18:38 59.11091 20.54541 38000 ft 514 kts 228°
2026-04-26 18:38 59.05763 20.45286 38057 ft 513 kts 228°
2026-04-26 18:39 59.00477 20.36056 38073 ft 510 kts 228°
2026-04-26 18:39 58.95227 20.26848 38076 ft 508 kts 228°
2026-04-26 18:40 58.90017 20.17724 38084 ft 508 kts 228°
2026-04-26 18:40 58.84774 20.08585 38080 ft 507 kts 228°
2026-04-26 18:41 58.79527 19.99482 38090 ft 507 kts 228°
2026-04-26 18:41 58.74265 19.90395 38065 ft 508 kts 229°
2026-04-26 18:42 58.68999 19.81343 38094 ft 508 kts 228°
2026-04-26 18:42 58.63724 19.72310 38074 ft 508 kts 228°
2026-04-26 18:43 58.58444 19.63307 38100 ft 509 kts 228°
2026-04-26 18:43 58.53138 19.54299 38111 ft 510 kts 228°
2026-04-26 18:44 58.47812 19.45293 38108 ft 511 kts 228°
2026-04-26 18:44 58.42479 19.36315 38110 ft 511 kts 228°
2026-04-26 18:45 58.37168 19.27413 38106 ft 511 kts 228°
2026-04-26 18:45 58.31815 19.18477 38109 ft 511 kts 228°
2026-04-26 18:46 58.26442 19.09545 38118 ft 511 kts 227°
2026-04-26 18:46 58.21110 19.00718 38122 ft 511 kts 227°
2026-04-26 18:47 58.15749 18.91880 38120 ft 510 kts 227°
2026-04-26 18:47 58.10393 18.83086 38122 ft 510 kts 227°
2026-04-26 18:48 58.05028 18.74313 38128 ft 509 kts 227°
2026-04-26 18:48 57.99659 18.65569 38127 ft 509 kts 227°
2026-04-26 18:49 57.94294 18.56869 38098 ft 508 kts 227°
2026-04-26 18:49 57.88971 18.48273 38129 ft 507 kts 227°
2026-04-26 18:50 57.83611 18.39650 38134 ft 507 kts 227°
2026-04-26 18:50 57.78250 18.31061 38133 ft 507 kts 227°
2026-04-26 18:51 57.72879 18.22491 38131 ft 507 kts 227°
2026-04-26 18:51 57.67515 18.13969 38123 ft 505 kts 227°
2026-04-26 18:52 57.63071 18.06935 38142 ft 503 kts 227°
2026-04-26 18:52 57.56834 17.97100 38144 ft 501 kts 227°
2026-04-26 18:53 57.51513 17.88743 38154 ft 500 kts 226°
2026-04-26 18:53 57.46225 17.80471 38156 ft 499 kts 226°
2026-04-26 18:54 57.40905 17.72181 38164 ft 499 kts 226°
2026-04-26 18:54 57.35577 17.63912 38164 ft 500 kts 226°
2026-04-26 18:55 57.30232 17.55649 38171 ft 500 kts 226°
2026-04-26 18:55 57.24873 17.47397 38141 ft 501 kts 226°
2026-04-26 18:56 57.19541 17.39221 38172 ft 501 kts 226°
2026-04-26 18:56 57.15047 17.32352 38183 ft 501 kts 226°
2026-04-26 18:57 57.10583 17.25552 38185 ft 501 kts 226°
2026-04-26 18:57 57.04335 17.16072 38188 ft 501 kts 226°
2026-04-26 18:58 56.98948 17.07933 38188 ft 500 kts 226°
2026-04-26 18:58 56.93567 16.99833 38191 ft 500 kts 226°
2026-04-26 18:59 56.88181 16.91758 38194 ft 500 kts 226°
2026-04-26 18:59 56.82792 16.83707 38196 ft 500 kts 226°
2026-04-26 19:00 56.77396 16.75679 38175 ft 499 kts 225°
2026-04-26 19:00 56.72039 16.67739 38187 ft 499 kts 225°
2026-04-26 19:01 56.66647 16.59778 38189 ft 499 kts 225°
2026-04-26 19:01 56.61249 16.51837 38188 ft 499 kts 225°
2026-04-26 19:02 56.55854 16.43929 38154 ft 499 kts 225°
2026-04-26 19:02 56.51370 16.37381 38176 ft 497 kts 225°
2026-04-26 19:03 56.45065 16.28210 38193 ft 496 kts 225°
2026-04-26 19:03 56.39717 16.20461 38201 ft 495 kts 225°
2026-04-26 19:04 56.34340 16.12698 38208 ft 494 kts 225°
2026-04-26 19:04 56.28973 16.04977 38201 ft 493 kts 224°
2026-04-26 19:05 56.20923 15.93453 38215 ft 492 kts 224°
2026-04-26 19:06 56.15558 15.85806 38224 ft 492 kts 224°
2026-04-26 19:06 56.10178 15.78166 38224 ft 492 kts 224°
2026-04-26 19:07 56.04804 15.70564 38226 ft 492 kts 224°
2026-04-26 19:07 55.99460 15.63031 38237 ft 493 kts 224°
2026-04-26 19:08 55.94069 15.55460 38246 ft 493 kts 224°
2026-04-26 19:08 55.88668 15.47903 38245 ft 493 kts 224°
2026-04-26 19:09 55.83257 15.40359 38231 ft 493 kts 224°
2026-04-26 19:09 55.77843 15.32838 38230 ft 493 kts 223°
2026-04-26 19:10 55.72438 15.25357 38248 ft 492 kts 223°
2026-04-26 19:10 55.67063 15.17944 38250 ft 492 kts 223°
2026-04-26 19:11 55.61657 15.10516 38241 ft 491 kts 223°
2026-04-26 19:11 55.56262 15.03127 38256 ft 491 kts 223°
2026-04-26 19:12 55.50860 14.95758 38262 ft 490 kts 223°
2026-04-26 19:12 55.45458 14.88411 38263 ft 490 kts 223°
2026-04-26 19:13 55.40049 14.81084 38237 ft 490 kts 223°
2026-04-26 19:13 55.34644 14.73786 38267 ft 490 kts 223°
2026-04-26 19:14 55.29239 14.66515 38269 ft 489 kts 223°
2026-04-26 19:14 55.23822 14.59253 38267 ft 490 kts 223°
2026-04-26 19:15 55.18437 14.52060 38269 ft 490 kts 223°
2026-04-26 19:15 55.13012 14.44838 38271 ft 490 kts 223°
2026-04-26 19:16 55.07573 14.37622 38272 ft 490 kts 222°
2026-04-26 19:16 55.02143 14.30443 38278 ft 490 kts 222°
2026-04-26 19:17 54.96707 14.23279 38278 ft 490 kts 222°
2026-04-26 19:17 54.91272 14.16139 38279 ft 489 kts 222°
2026-04-26 19:18 54.85969 14.08761 38284 ft 487 kts 225°
2026-04-26 19:18 54.80794 14.01282 38289 ft 487 kts 225°
2026-04-26 19:19 54.75568 13.93783 38290 ft 488 kts 224°
2026-04-26 19:19 54.70309 13.86329 38291 ft 488 kts 224°
2026-04-26 19:20 54.65045 13.78923 38297 ft 487 kts 224°
2026-04-26 19:20 54.59782 13.71546 38295 ft 487 kts 224°
2026-04-26 19:21 54.54518 13.64189 38294 ft 487 kts 224°
2026-04-26 19:21 54.49256 13.56859 38270 ft 486 kts 224°
2026-04-26 19:22 54.43995 13.49554 38288 ft 486 kts 224°
2026-04-26 19:22 54.38767 13.42319 38293 ft 485 kts 224°
2026-04-26 19:23 54.33507 13.35065 38297 ft 485 kts 224°
2026-04-26 19:23 54.28237 13.27821 38298 ft 486 kts 223°
2026-04-26 19:24 54.22962 13.20594 38292 ft 486 kts 223°
2026-04-26 19:24 54.15064 13.09820 38298 ft 486 kts 223°
2026-04-26 19:25 54.10627 13.03792 38304 ft 487 kts 223°
2026-04-26 19:25 54.04457 12.95437 38272 ft 487 kts 223°
2026-04-26 19:26 53.99152 12.88280 38286 ft 486 kts 223°
2026-04-26 19:26 53.93850 12.81150 38290 ft 486 kts 223°
2026-04-26 19:27 53.88566 12.74069 38308 ft 486 kts 223°
2026-04-26 19:27 53.83257 12.66976 38304 ft 486 kts 223°
2026-04-26 19:28 53.77944 12.59903 38283 ft 486 kts 223°
2026-04-26 19:28 53.72624 12.52844 38293 ft 485 kts 223°
2026-04-26 19:29 53.67304 12.45808 38296 ft 485 kts 223°
2026-04-26 19:29 53.61983 12.38793 38297 ft 486 kts 223°
2026-04-26 19:30 53.56657 12.31794 38289 ft 485 kts 223°
2026-04-26 19:30 53.52222 12.25986 38298 ft 485 kts 223°
2026-04-26 19:31 53.46031 12.17901 38290 ft 485 kts 222°
2026-04-26 19:31 53.40695 12.10958 38300 ft 485 kts 222°
2026-04-26 19:32 53.35354 12.04032 38294 ft 485 kts 222°
2026-04-26 19:32 53.30009 11.97123 38289 ft 485 kts 222°
2026-04-26 19:33 53.24660 11.90231 38285 ft 485 kts 222°
2026-04-26 19:33 53.19324 11.83379 38290 ft 485 kts 222°
2026-04-26 19:34 53.13969 11.76524 38270 ft 485 kts 222°
2026-04-26 19:34 53.08617 11.69694 38287 ft 485 kts 222°
2026-04-26 19:35 53.03252 11.62870 38286 ft 485 kts 222°
2026-04-26 19:35 52.97919 11.56108 38286 ft 486 kts 222°
2026-04-26 19:36 52.94323 11.51561 38283 ft 486 kts 222°
2026-04-26 19:36 52.87158 11.42530 38285 ft 486 kts 221°
2026-04-26 19:37 52.81774 11.35768 38286 ft 486 kts 221°
2026-04-26 19:37 52.76373 11.29007 38281 ft 487 kts 221°
2026-04-26 19:38 52.70972 11.22269 38261 ft 487 kts 221°
2026-04-26 19:38 52.65573 11.15553 38282 ft 486 kts 221°
2026-04-26 19:39 52.60164 11.08846 38283 ft 486 kts 221°
2026-04-26 19:39 52.54789 11.02202 38266 ft 486 kts 221°
2026-04-26 19:40 52.49372 10.95526 38263 ft 487 kts 221°
2026-04-26 19:40 52.43947 10.88859 38283 ft 485 kts 221°
2026-04-26 19:41 52.38566 10.82384 38280 ft 479 kts 217°
2026-04-26 19:41 52.34724 10.78838 38231 ft 478 kts 210°
2026-04-26 19:42 52.26364 10.73702 38225 ft 483 kts 203°
2026-04-26 19:42 52.19995 10.70166 38228 ft 484 kts 203°
2026-04-26 19:43 52.13627 10.66587 38225 ft 484 kts 203°
2026-04-26 19:43 52.10459 10.64797 38039 ft 477 kts 203°
2026-04-26 19:43 52.07340 10.63033 37660 ft 476 kts 203°
2026-04-26 19:44 52.01069 10.59482 37614 ft 477 kts 203°
2026-04-26 19:44 51.95848 10.56536 37624 ft 478 kts 203°
2026-04-26 19:45 51.89561 10.53004 37503 ft 475 kts 203°
2026-04-26 19:45 51.86438 10.51255 36976 ft 472 kts 203°
2026-04-26 19:45 51.83348 10.49527 36457 ft 469 kts 203°
2026-04-26 19:46 51.80271 10.47808 35947 ft 466 kts 204°
2026-04-26 19:46 51.77215 10.46103 35457 ft 463 kts 204°
2026-04-26 19:46 51.74175 10.44409 34968 ft 461 kts 204°
2026-04-26 19:46 51.71155 10.42727 34487 ft 458 kts 204°
2026-04-26 19:47 51.68150 10.41057 33969 ft 455 kts 204°
2026-04-26 19:47 51.66175 10.39961 33606 ft 453 kts 204°
2026-04-26 19:47 51.62205 10.37758 32895 ft 449 kts 204°
2026-04-26 19:47 51.59260 10.36127 32366 ft 446 kts 204°
2026-04-26 19:48 51.56326 10.34505 31830 ft 444 kts 203°
2026-04-26 19:48 51.53457 10.32921 31334 ft 441 kts 203°
2026-04-26 19:48 51.50559 10.31322 30833 ft 439 kts 203°
2026-04-26 19:48 51.47682 10.29736 30348 ft 436 kts 203°
2026-04-26 19:49 51.44818 10.28161 29787 ft 433 kts 203°
2026-04-26 19:49 51.41976 10.26600 29229 ft 431 kts 203°
2026-04-26 19:49 51.39147 10.25047 28681 ft 428 kts 203°
2026-04-26 19:49 51.36337 10.23534 28143 ft 426 kts 201°
2026-04-26 19:50 51.33444 10.22428 27568 ft 428 kts 193°
2026-04-26 19:50 51.30470 10.21811 26986 ft 434 kts 187°
2026-04-26 19:50 51.27410 10.21705 26724 ft 442 kts 183°
2026-04-26 19:50 51.24332 10.21712 26714 ft 442 kts 183°
2026-04-26 19:51 51.21296 10.21703 26703 ft 442 kts 183°
2026-04-26 19:51 51.18223 10.21666 26700 ft 441 kts 184°
2026-04-26 19:51 51.15154 10.21616 26693 ft 441 kts 184°
2026-04-26 19:51 51.12101 10.21457 26614 ft 437 kts 190°
2026-04-26 19:52 51.09174 10.20280 26547 ft 430 kts 207°
2026-04-26 19:52 51.06645 10.17883 26497 ft 421 kts 224°
2026-04-26 19:52 51.04499 10.14740 26092 ft 420 kts 227°
2026-04-26 19:52 51.02334 10.11622 25643 ft 419 kts 225°
2026-04-26 19:53 51.00144 10.08585 25211 ft 416 kts 224°
2026-04-26 19:53 50.97987 10.05645 24790 ft 412 kts 224°
2026-04-26 19:53 50.95817 10.02707 24359 ft 408 kts 224°
2026-04-26 19:53 50.93665 9.99800 23925 ft 404 kts 224°
2026-04-26 19:54 50.91536 9.96924 23454 ft 400 kts 224°
2026-04-26 19:54 50.89427 9.94074 22949 ft 396 kts 224°
2026-04-26 19:54 50.87333 9.91247 22463 ft 393 kts 224°
2026-04-26 19:54 50.85261 9.88452 21976 ft 390 kts 224°
2026-04-26 19:55 50.83204 9.85679 21524 ft 387 kts 224°
2026-04-26 19:55 50.81155 9.82918 21051 ft 384 kts 224°
2026-04-26 19:55 50.79131 9.80195 20594 ft 381 kts 224°
2026-04-26 19:55 50.77116 9.77488 20153 ft 379 kts 223°
2026-04-26 19:56 50.75113 9.74799 19655 ft 378 kts 223°
2026-04-26 19:56 50.73110 9.72112 19132 ft 377 kts 223°
2026-04-26 19:56 50.71112 9.69435 18619 ft 377 kts 223°
2026-04-26 19:56 50.69113 9.66761 18052 ft 376 kts 223°
2026-04-26 19:57 50.67115 9.64092 17468 ft 376 kts 223°
2026-04-26 19:57 50.65122 9.61432 16898 ft 375 kts 223°
2026-04-26 19:57 50.63130 9.58779 16403 ft 373 kts 223°
2026-04-26 19:57 50.61158 9.56155 15959 ft 370 kts 223°
2026-04-26 19:58 50.59227 9.53587 15519 ft 366 kts 223°
2026-04-26 19:58 50.57286 9.51009 15047 ft 363 kts 223°
2026-04-26 19:58 50.55359 9.48452 14625 ft 361 kts 223°
2026-04-26 19:58 50.53447 9.45918 14196 ft 358 kts 223°
2026-04-26 19:59 50.51549 9.43403 13744 ft 356 kts 223°
2026-04-26 19:59 50.49664 9.40911 13340 ft 351 kts 223°
2026-04-26 19:59 50.47814 9.38469 13279 ft 347 kts 223°
2026-04-26 19:59 50.45964 9.36026 13283 ft 348 kts 223°
2026-04-26 20:00 50.44109 9.33580 13267 ft 347 kts 223°
2026-04-26 20:00 50.42263 9.31149 13267 ft 346 kts 223°
2026-04-26 20:00 50.40426 9.28732 13283 ft 345 kts 223°
2026-04-26 20:00 50.38584 9.26310 13261 ft 342 kts 223°
2026-04-26 20:01 50.36790 9.23958 13249 ft 328 kts 223°
2026-04-26 20:01 50.35076 9.21712 13249 ft 314 kts 223°
2026-04-26 20:01 50.33434 9.19557 13256 ft 306 kts 223°
2026-04-26 20:01 50.31798 9.17411 13275 ft 308 kts 223°
2026-04-26 20:02 50.30152 9.15258 13267 ft 307 kts 223°
2026-04-26 20:02 50.28526 9.13101 13252 ft 303 kts 226°
2026-04-26 20:02 50.27205 9.10641 13263 ft 297 kts 239°
2026-04-26 20:02 50.26458 9.08812 13265 ft 294 kts 244°
2026-04-26 20:03 50.25407 9.04936 13274 ft 292 kts 253°
2026-04-26 20:03 50.24745 9.01930 13273 ft 293 kts 254°
2026-04-26 20:03 50.24087 8.98898 13266 ft 295 kts 253°
2026-04-26 20:03 50.23417 8.95854 13266 ft 297 kts 253°
2026-04-26 20:04 50.22734 8.92813 13255 ft 296 kts 253°
2026-04-26 20:04 50.22045 8.89793 13110 ft 294 kts 253°
2026-04-26 20:04 50.21352 8.86790 12843 ft 294 kts 252°
2026-04-26 20:04 50.20651 8.83779 12586 ft 298 kts 252°
2026-04-26 20:05 50.19931 8.80699 12580 ft 306 kts 252°
2026-04-26 20:05 50.19192 8.77551 12581 ft 309 kts 252°
2026-04-26 20:05 50.18462 8.74461 12354 ft 306 kts 252°
2026-04-26 20:05 50.17729 8.71372 12080 ft 301 kts 252°
2026-04-26 20:06 50.16997 8.68292 11823 ft 297 kts 252°
2026-04-26 20:06 50.16284 8.65295 11570 ft 292 kts 252°
2026-04-26 20:06 50.15581 8.62347 11364 ft 287 kts 252°
2026-04-26 20:06 50.14893 8.59464 11305 ft 282 kts 252°
2026-04-26 20:07 50.14206 8.56583 11275 ft 285 kts 252°
2026-04-26 20:07 50.13510 8.53664 11278 ft 289 kts 252°
2026-04-26 20:07 50.12815 8.50756 11274 ft 291 kts 252°
2026-04-26 20:07 50.12107 8.47803 11267 ft 290 kts 252°
2026-04-26 20:08 50.11399 8.44852 11157 ft 292 kts 252°
2026-04-26 20:08 50.10679 8.41853 10742 ft 297 kts 252°
2026-04-26 20:08 50.09939 8.38772 10283 ft 315 kts 252°
2026-04-26 20:08 50.09158 8.35525 10281 ft 324 kts 252°
2026-04-26 20:09 50.08356 8.32201 10286 ft 331 kts 252°
2026-04-26 20:09 50.07550 8.28873 10105 ft 326 kts 252°
2026-04-26 20:09 50.06755 8.25601 9745 ft 315 kts 252°
2026-04-26 20:09 50.06004 8.22512 9398 ft 297 kts 252°
2026-04-26 20:10 50.05291 8.19579 9066 ft 281 kts 252°
2026-04-26 20:10 50.04616 8.16802 8725 ft 267 kts 252°
2026-04-26 20:10 50.03980 8.14194 8391 ft 255 kts 252°
2026-04-26 20:10 50.03351 8.11611 8097 ft 254 kts 252°
2026-04-26 20:11 50.02725 8.09033 7746 ft 255 kts 252°
2026-04-26 20:11 50.02096 8.06447 7387 ft 257 kts 252°
2026-04-26 20:11 50.01458 8.03834 6982 ft 260 kts 252°
2026-04-26 20:12 50.00190 7.98651 6029 ft 247 kts 252°
2026-04-26 20:12 49.99591 7.96206 5552 ft 238 kts 251°
2026-04-26 20:12 49.98994 7.93798 5127 ft 239 kts 248°
2026-04-26 20:12 49.97950 7.91868 5018 ft 239 kts 209°
2026-04-26 20:13 49.96373 7.90954 5015 ft 246 kts 199°
2026-04-26 20:13 49.94794 7.90084 5012 ft 238 kts 201°
2026-04-26 20:13 49.93292 7.89189 4981 ft 226 kts 202°
2026-04-26 20:13 49.91845 7.88315 4977 ft 224 kts 202°
2026-04-26 20:14 49.90363 7.87419 5019 ft 226 kts 202°
2026-04-26 20:14 49.88914 7.86545 4980 ft 225 kts 202°
2026-04-26 20:14 49.87461 7.85668 4980 ft 224 kts 202°
2026-04-26 20:14 49.85985 7.85036 4966 ft 218 kts 181°
2026-04-26 20:15 49.84582 7.85646 4967 ft 206 kts 143°
2026-04-26 20:15 49.83738 7.87330 4993 ft 198 kts 105°
2026-04-26 20:15 49.83729 7.89401 4993 ft 193 kts 67°
2026-04-26 20:15 49.84524 7.90972 4989 ft 185 kts 28°
2026-04-26 20:16 49.85720 7.91633 4993 ft 183 kts 10°
2026-04-26 20:16 49.86993 7.91880 4997 ft 185 kts
2026-04-26 20:16 49.88282 7.92073 4991 ft 186 kts
2026-04-26 20:16 49.89413 7.92894 4976 ft 185 kts 45°
2026-04-26 20:17 49.90091 7.94622 5012 ft 188 kts 59°
2026-04-26 20:17 49.90698 7.96413 5004 ft 192 kts 60°
2026-04-26 20:17 49.91265 7.98296 4981 ft 193 kts 63°
2026-04-26 20:17 49.91616 7.99586 4972 ft 189 kts 65°
2026-04-26 20:18 49.92260 8.02099 4996 ft 190 kts 66°
2026-04-26 20:18 49.92724 8.03982 4976 ft 184 kts 67°
2026-04-26 20:18 49.93171 8.05818 4973 ft 180 kts 67°
2026-04-26 20:18 49.93611 8.07642 4998 ft 181 kts 67°
2026-04-26 20:19 49.94056 8.09487 4990 ft 182 kts 67°
2026-04-26 20:19 49.94500 8.11332 5003 ft 183 kts 67°
2026-04-26 20:19 49.94943 8.13179 5007 ft 181 kts 67°
2026-04-26 20:19 49.95397 8.15064 4955 ft 190 kts 67°
2026-04-26 20:20 49.95858 8.16984 4694 ft 187 kts 67°
2026-04-26 20:20 49.96297 8.18818 4437 ft 180 kts 68°
2026-04-26 20:20 49.96728 8.20614 4218 ft 176 kts 68°
2026-04-26 20:20 49.97159 8.22405 3990 ft 175 kts 68°
2026-04-26 20:21 49.97578 8.24152 3766 ft 175 kts 69°
2026-04-26 20:21 49.98001 8.25916 3530 ft 174 kts 69°
2026-04-26 20:21 49.98422 8.27669 3297 ft 172 kts 69°
2026-04-26 20:21 49.98838 8.29403 3064 ft 171 kts 69°
2026-04-26 20:22 49.99252 8.31129 2826 ft 169 kts 69°
2026-04-26 20:22 49.99663 8.32843 2602 ft 169 kts 70°
2026-04-26 20:22 50.00069 8.34536 2373 ft 164 kts 70°
2026-04-26 20:22 50.00456 8.36153 2152 ft 156 kts 70°
2026-04-26 20:23 50.00833 8.37726 1927 ft 156 kts 70°
2026-04-26 20:23 50.01209 8.39296 1748 ft 156 kts 69°
2026-04-26 20:23 50.01586 8.40869 1520 ft 151 kts 69°
2026-04-26 20:23 50.01940 8.42344 1309 ft 140 kts 69°
2026-04-26 20:24 50.02274 8.43739 1121 ft 137 kts 69°
2026-04-26 20:24 50.02606 8.45128 960 ft 137 kts 68°
2026-04-26 20:24 50.02942 8.46526 793 ft 138 kts 68°
2026-04-26 20:24 50.03266 8.47918 587 ft 136 kts 68°
2026-04-26 20:25 50.03596 8.49276 380 ft 132 kts 68°
2026-04-26 20:25 50.03695 8.49708 326 ft 129 kts 69°
2026-04-26 20:25 50.04166 8.51631 335 ft 105 kts 69°
2026-04-26 20:25 50.04413 8.52660 360 ft 89 kts 68°